Temp
1 0 1 2 1 0 -0 -0 -0 0 1 2 3 3 3 4 4 5 6 7 7 8 8 8 8 8 7 7 7 6 6 6 6 6 5 5 4 3 3 2 2 1 2 2
-1 -0 1 -0 -0 -1 -1 -1 -1 -0 1 1 2 2 3 4 4 5 6 6 7 8 8 9 8 8 8 7 7 6 6 6 6 6 5 5 3 3 3 2 2 1 1 2
-1 -0 -0 -1 -0 -1 -1 -1 -1 -1 0 1 1 2 3 4 4 5 6 7 7 8 8 9 9 8 8 7 7 6 6 6 6 6 5 4 4 3 3 3 2 1 1 1
-2 -1 -1 -1 -0 -1 -2 -1 -2 -1 -0 0 1 1 2 3 4 5 6 7 7 9 9 9 9 8 8 7 7 6 6 6 6 6 5 4 3 3 3 2 2 2 2 1
-1 -1 -1 -1 -1 -2 -1 -2 -2 -1 -0 -0 0 1 2 3 4 6 7 7 8 9 9 9 9 8 8 8 7 6 6 6 6 6 6 4 4 3 3 2 2 2 1 1
-2 -2 -1 -1 -1 -2 -2 -2 -2 -1 -1 -1 0 1 2 4 5 6 7 7 7 8 9 9 9 8 8 8 7 6 6 6 6 6 6 5 4 4 4 3 2 1 1 1
-1 -0 -1 -1 -2 -2 -2 -3 -2 -2 -2 -1 2 1 2 4 5 5 7 7 8 7 8 8 9 9 9 8 7 6 6 6 6 6 6 5 4 4 3 3 3 2 1 1
-2 -1 -0 -0 -0 -1 -1 -3 -2 -1 -1 -0 2 1 3 4 5 6 6 8 8 8 8 8 9 9 9 8 7 6 6 6 6 6 6 5 5 4 4 3 3 3 2 2
-2 -1 -1 -1 -1 -1 -2 -3 -2 -2 -1 -1 2 3 3 4 5 5 6 7 8 8 9 9 9 9 9 8 7 6 5 5 5 5 5 5 5 4 4 3 3 3 3 2
-2 -2 -1 -1 -1 -2 -2 -2 -2 -2 -1 -0 2 2 -0 2 4 5 6 7 8 9 9 9 10 10 9 8 7 5 5 5 6 5 5 5 5 5 4 4 3 2 2 2
-2 -2 -1 -2 -2 -1 -2 -3 -2 -2 -2 -0 0 0 -1 -0 1 4 6 8 8 8 9 9 10 9 8 7 6 5 5 5 5 5 6 5 5 5 4 4 3 3 3 3
-3 -3 -3 -1 -1 -1 -1 -1 -1 -2 -1 -1 -1 -1 -0 -0 -0 1 4 6 8 8 9 9 9 8 8 7 5 5 4 3 4 5 6 6 5 5 5 4 3 3 2 3
-4 -4 -3 -1 -1 -2 -2 -2 -2 -2 -2 -1 -1 -0 -0 -1 -0 0 1 2 4 7 8 8 8 8 7 6 5 5 4 4 5 5 5 5 5 6 5 5 5 4 3 2
-3 -3 -2 -2 -3 -3 -3 -3 -3 -3 -2 -2 -1 -0 -1 -1 -1 -1 -0 1 2 2 3 6 7 7 7 6 5 5 5 5 5 4 4 4 5 5 5 5 5 5 5 4
-3 -3 -3 -3 -3 -3 -3 -3 -2 -3 -2 -2 -2 -2 -2 -1 -1 -1 -1 -1 -0 1 2 2 3 4 6 5 5 4 4 4 3 4 4 4 4 4 4 5 5 5 5 5
-4 -4 -4 -3 -3 -3 -3 -2 -2 -2 -2 -2 -1 -1 -0 -1 -1 -1 -1 -1 -2 -1 -0 0 1 2 2 2 3 3 1 2 3 4 4 4 4 4 4 4 4 4 4 4
-5 -4 -4 -4 -4 -3 -2 -2 -2 -2 -2 -1 -1 -1 -2 -1 -1 -1 -2 -1 -1 -1 -2 -1 -0 -0 -0 0 1 1 1 2 3 4 4 4 4 4 4 4 4 4 4 4
-5 -5 -4 -5 -4 -5 -2 -2 -2 -2 -2 -1 -1 -1 -1 -1 -1 -1 -2 -1 -1 -1 -1 -2 -2 -1 -1 0 1 1 2 2 2 3 3 4 4 4 4 4 4 4 4 4
-5 -5 -5 -5 -4 -4 -3 -3 -3 -3 -2 -2 -2 -2 -2 -2 -2 -2 -2 -2 -2 -2 -2 -2 -3 -3 -3 -2 -0 0 1 2 2 2 2 2 2 2 2 3 3 3 3 3
-4 -6 -6 -6 -5 -7 -3 -3 -3 -3 -2 -2 -2 -2 -2 -2 -2 -2 -2 -2 -2 -2 -3 -4 -2 -2 -1 0 0 1 1 1 1 2 2 2 2 2 2 2 2 2 2 3
-5 -6 -6 -6 -6 -5 -4 -2 -3 -4 -2 -2 -2 -2 -2 -2 -2 -2 -2 -2 -2 -3 -3 -3 -3 -3 -1 -0 0 0 1 1 1 1 1 2 2 2 2 3 2 2 2 2
-5 -5 -6 -7 -7 -6 -4 -4 -4 -4 -3 -3 -3 -2 -2 -2 -2 -2 -2 -3 -3 -3 -3 -3 -2 -1 -1 -1 -0 0 0 0 0 1 1 1 1 2 2 2 2 2 3 2
-6 -6 -5 -6 -6 -4 -4 -4 -4 -4 -4 -3 -3 -3 -2 -2 -3 -3 -4 -3 -4 -4 -4 -2 -2 -2 -1 -1 -1 -1 -1 -0 -0 -0 -0 0 0 0 0 0 0 0 1 1
-6 -6 -6 -6 -6 -5 -5 -5 -5 -5 -5 -4 -4 -4 -4 -4 -4 -4 -4 -5 -6 -4 -3 -3 -2 -2 -1 -2 -1 -1 -1 -1 -1 -1 -1 -1 -1 -1 -1 -1 -1 -1 -1 -1
-7 -7 -6 -6 -6 -6 -6 -6 -6 -5 -5 -5 -5 -5 -4 -5 -5 -5 -5 -5 -5 -5 -4 -3 -3 -3 -3 -2 -2 -2 -2 -3 -2 -2 -2 -2 -2 -3 -3 -3 -3 -3 -3 -3
-7 -7 -7 -7 -7 -7 -6 -6 -6 -6 -5 -5 -5 -6 -6 -7 -6 -7 -6 -7 -6 -5 -5 -4 -4 -4 -4 -3 -3 -3 -4 -4 -4 -4 -4 -4 -4 -5 -5 -5 -5 -5 -5 -5
Height
3024 3023 3019 3025 3028 3027 3027 3027 3024 3025 3028 3028 3026 3022 3024 3028 3029 3030 3033 3037 3039 3041 3046 3048 3050 3054 3056 3057 3059 3059 3057 3055 3052 3051 3050 3048 3050 3052 3054 3056 3055 3053 3058 3063
3021 3016 3020 3021 3022 3023 3022 3021 3019 3019 3022 3024 3019 3014 3016 3020 3021 3025 3028 3030 3032 3035 3038 3042 3045 3048 3050 3053 3055 3055 3054 3052 3050 3048 3047 3047 3048 3051 3053 3054 3055 3057 3059 3064
3016 3017 3015 3017 3019 3017 3016 3016 3016 3016 3018 3017 3014 3005 3009 3013 3016 3018 3021 3024 3025 3028 3032 3037 3040 3043 3046 3048 3051 3052 3051 3050 3047 3046 3045 3044 3046 3048 3050 3052 3055 3059 3062 3066
3012 3012 3012 3014 3014 3014 3012 3013 3012 3013 3016 3011 3013 3000 3005 3006 3008 3011 3016 3018 3020 3022 3026 3031 3035 3038 3042 3045 3047 3048 3048 3047 3045 3043 3043 3042 3044 3047 3049 3051 3055 3058 3061 3065
3009 3008 3008 3009 3011 3011 3010 3009 3009 3011 3010 3009 3008 3008 2998 3002 3002 3006 3011 3013 3016 3017 3020 3026 3030 3034 3038 3041 3044 3045 3045 3045 3044 3042 3041 3040 3042 3045 3047 3049 3052 3054 3057 3061
3005 3006 3006 3006 3008 3008 3008 3006 3009 3008 3008 3003 3003 3006 2997 2999 3000 3002 3006 3008 3011 3012 3016 3020 3023 3028 3033 3037 3040 3042 3043 3043 3042 3041 3040 3038 3039 3042 3045 3047 3048 3049 3053 3056
3002 3001 3001 3002 3004 3005 3006 3008 3007 3006 3004 2998 2996 2998 2994 2995 2996 2995 2997 3001 3004 3008 3011 3015 3017 3022 3027 3032 3036 3039 3041 3041 3041 3041 3039 3038 3038 3039 3041 3044 3045 3045 3046 3050
3002 3000 2999 2999 3000 3001 3001 3005 3004 2999 2999 2995 2993 2991 2992 2990 2989 2989 2991 2994 2998 3003 3006 3009 3012 3017 3022 3028 3033 3036 3038 3039 3039 3039 3038 3037 3037 3038 3039 3040 3041 3041 3041 3045
3000 2999 2998 2998 3000 3002 3000 3000 3001 3000 2998 2995 2989 2988 2988 2984 2984 2985 2987 2990 2992 2996 3000 3003 3007 3012 3017 3023 3029 3033 3034 3035 3036 3036 3036 3036 3036 3036 3037 3038 3039 3039 3042 3044
2999 2999 2997 2996 2997 2999 2998 2997 2998 2999 2995 2992 2986 2985 2984 2979 2979 2980 2981 2984 2987 2990 2995 2997 3000 3005 3011 3018 3025 3028 3030 3031 3033 3034 3034 3034 3034 3035 3036 3038 3038 3038 3040 3044
2995 2996 2997 2995 2995 2995 2996 2994 2995 2995 2994 2990 2986 2985 2983 2978 2975 2975 2974 2976 2980 2984 2988 2991 2993 2999 3005 3013 3019 3024 3026 3028 3030 3031 3033 3033 3033 3034 3035 3036 3038 3038 3040 3043
2991 2993 2991 2992 2993 2993 2993 2992 2992 2993 2989 2989 2989 2985 2982 2980 2976 2973 2971 2972 2974 2979 2982 2987 2987 2994 3001 3008 3015 3020 3022 3024 3025 3027 3030 3032 3033 3033 3034 3035 3036 3038 3039 3040
2989 2989 2990 2989 2991 2991 2990 2990 2990 2990 2988 2985 2987 2984 2982 2980 2978 2976 2973 2971 2973 2976 2979 2982 2986 2990 2997 3003 3008 3013 3016 3020 3023 3025 3027 3030 3031 3033 3034 3034 3036 3037 3038 3040
2988 2987 2988 2991 2991 2992 2989 2988 2988 2986 2985 2983 2983 2982 2980 2982 2980 2980 2977 2975 2974 2976 2978 2980 2984 2988 2994 3000 3006 3011 3015 3018 3021 3024 3024 3026 3028 3029 3030 3032 3033 3034 3035 3037
2985 2986 2987 2987 2987 2987 2987 2985 2985 2984 2984 2983 2982 2981 2980 2980 2978 2981 2983 2981 2979 2978 2979 2980 2983 2986 2992 2999 3003 3007 3012 3015 3019 3020 3021 3023 3025 3026 3027 3029 3030 3031 3032 3034
2984 2984 2986 2985 2984 2984 2983 2983 2980 2980 2979 2978 2978 2977 2979 2977 2978 2979 2980 2983 2984 2984 2981 2981 2983 2987 2992 2997 3000 3004 3007 3010 3015 3016 3018 3019 3021 3022 3024 3025 3026 3028 3028 3030
2983 2982 2983 2982 2982 2981 2980 2977 2977 2976 2975 2975 2974 2975 2970 2972 2973 2976 2979 2980 2981 2985 2986 2985 2984 2987 2993 2995 2999 3002 3006 3007 3009 3011 3013 3014 3016 3017 3018 3019 3021 3021 3022 3023
2980 2981 2981 2980 2980 2983 2978 2976 2976 2975 2973 2972 2972 2973 2969 2968 2970 2972 2974 2975 2978 2979 2982 2983 2984 2986 2992 2994 2998 3002 3003 3004 3005 3006 3007 3008 3009 3010 3011 3012 3013 3014 3014 3014
2978 2977 2978 2979 2979 2979 2975 2975 2974 2973 2971 2970 2969 2970 2967 2969 2970 2968 2971 2974 2977 2978 2979 2978 2984 2987 2990 2994 2994 2998 3000 3001 3002 3002 3003 3003 3004 3005 3005 3005 3006 3006 3006 3006
2971 2974 2978 2978 2979 2978 2973 2972 2972 2971 2968 2967 2967 2967 2964 2964 2965 2968 2969 2971 2974 2976 2978 2980 2983 2989 2993 2990 2994 2995 2996 2997 2999 3000 2999 2999 2999 2999 2999 2999 2999 2998 2998 2998
2971 2972 2974 2976 2976 2972 2970 2969 2970 2971 2971 2965 2964 2962 2963 2962 2963 2963 2968 2969 2972 2975 2978 2982 2986 2988 2989 2991 2992 2992 2993 2994 2994 2994 2994 2994 2994 2994 2993 2993 2992 2991 2989 2989
2969 2971 2971 2972 2973 2971 2964 2966 2968 2968 2965 2963 2960 2959 2960 2961 2961 2964 2965 2968 2970 2974 2977 2980 2982 2984 2985 2986 2988 2988 2989 2990 2989 2989 2989 2988 2988 2987 2986 2985 2985 2984 2982 2980
2969 2969 2969 2969 2967 2964 2964 2965 2964 2964 2963 2962 2962 2959 2959 2960 2962 2964 2962 2967 2967 2970 2975 2978 2980 2981 2982 2983 2984 2984 2984 2984 2984 2983 2982 2982 2980 2979 2978 2977 2977 2975 2974 2972
2966 2965 2961 2959 2961 2962 2961 2962 2963 2963 2962 2961 2961 2960 2960 2960 2962 2965 2966 2967 2968 2972 2974 2976 2976 2976 2977 2978 2978 2979 2979 2978 2978 2978 2977 2976 2975 2974 2972 2971 2970 2968 2966 2964
2964 2961 2958 2959 2959 2959 2960 2961 2961 2961 2960 2959 2959 2960 2961 2960 2961 2963 2965 2967 2969 2970 2972 2972 2971 2972 2972 2973 2973 2972 2971 2971 2970 2969 2968 2967 2967 2966 2965 2963 2962 2959 2957 2955
2959 2957 2957 2958 2959 2959 2959 2960 2961 2960 2960 2960 2960 2960 2960 2959 2961 2962 2963 2965 2967 2968 2968 2968 2967 2967 2968 2968 2968 2968 2966 2965 2964 2962 2961 2959 2958 2958 2957 2956 2954 2951 2949 2947
Wind_Speed
22 27 32 24 25 28 31 34 36 34 24 26 24 29 32 28 29 30 30 27 30 27 23 21 24 26 24 22 17 15 17 18 16 16 14 10 16 15 15 11 9 12 18 35
22 27 21 18 21 24 27 32 37 35 30 29 30 35 35 33 29 25 26 28 31 29 29 25 23 23 24 21 16 14 15 16 15 14 12 9 14 15 14 12 7 3 17 30
23 15 10 11 15 22 24 31 33 31 29 29 30 41 38 38 31 26 26 27 26 26 28 23 24 21 19 18 11 12 13 14 13 13 11 9 15 18 18 18 13 13 12 17
16 20 24 17 12 11 20 20 23 20 19 14 11 10 25 24 27 28 26 21 20 24 25 24 22 20 17 14 12 11 10 12 11 11 10 6 12 17 16 17 16 14 17 19
8 7 10 18 15 10 14 11 10 17 16 18 18 15 11 17 23 28 26 20 15 27 29 28 22 19 18 14 15 14 9 10 9 9 9 6 11 14 15 18 22 20 21 26
20 18 18 19 14 13 13 14 15 15 14 10 18 18 9 15 19 21 24 20 18 16 22 24 23 21 24 17 17 15 11 9 6 7 7 7 7 11 13 15 18 17 22 27
12 13 15 19 24 18 16 12 3 4 5 4 4 15 23 12 9 17 21 21 18 21 23 20 23 26 20 22 20 16 12 9 5 4 4 3 5 9 11 12 14 17 24 31
5 4 2 1 7 10 10 14 5 3 3 2 10 6 10 11 13 15 20 20 22 25 25 21 18 23 21 22 20 14 12 9 7 5 3 0 1 4 7 8 9 11 11 28
4 5 1 2 5 6 4 15 20 6 8 2 5 13 15 16 20 26 26 23 28 27 26 25 21 24 22 24 19 15 13 12 9 8 5 4 3 1 3 5 4 3 10 18
9 8 7 8 11 10 12 7 6 13 3 4 7 5 5 8 12 21 26 24 23 25 24 25 26 26 28 27 23 17 16 15 13 9 7 6 5 5 3 2 2 3 7 18
22 13 9 5 8 12 7 6 8 6 10 3 2 2 10 8 9 10 16 22 22 22 19 24 32 29 32 28 26 19 15 13 14 13 11 9 8 6 4 4 5 5 5 8
16 10 9 24 16 11 13 12 9 6 3 11 2 4 7 8 6 5 8 13 21 25 22 24 29 34 32 29 26 22 19 15 15 14 14 12 10 8 6 5 5 6 7 8
0 2 2 1 7 4 4 10 14 14 15 6 3 3 8 9 14 12 9 1 9 20 18 23 31 33 34 32 31 30 26 20 14 12 11 11 11 11 10 9 8 7 8 9
1 5 3 1 5 10 13 14 15 17 6 3 10 8 14 4 12 18 20 18 7 4 11 19 27 31 33 32 31 27 21 17 14 12 11 10 11 14 14 14 13 12 12 12
4 3 5 7 7 10 10 12 15 17 19 10 5 8 14 13 21 12 6 13 15 13 13 14 19 22 33 31 30 25 19 15 15 16 14 12 11 13 12 13 14 15 16 16
7 5 4 8 7 10 18 17 18 18 20 24 18 24 20 12 12 10 10 15 7 16 20 19 16 14 10 11 11 19 23 15 20 15 15 14 13 14 16 17 17 18 19 20
7 4 2 2 10 18 12 2 12 12 14 18 22 20 19 17 23 22 20 18 15 11 13 17 19 16 11 8 4 3 3 6 8 11 14 17 19 20 19 20 20 21 22 24
7 5 3 3 10 1 5 9 13 15 15 14 14 17 6 9 18 18 14 16 22 18 14 13 15 16 9 9 4 3 7 9 11 15 17 19 21 23 24 26 28 29 29 28
14 11 4 2 4 13 19 2 6 10 16 15 13 16 18 19 13 21 16 18 15 11 10 15 13 9 8 4 1 5 9 10 11 12 14 15 17 18 19 21 22 24 27 30
13 15 9 5 2 4 4 5 9 15 21 9 10 16 20 19 21 24 24 24 18 11 13 15 13 8 1 3 3 6 9 11 13 15 15 16 17 18 19 21 22 22 24 25
4 7 17 19 9 11 22 23 21 10 10 19 17 13 14 22 22 23 13 18 18 12 11 9 6 2 2 6 8 10 12 15 16 17 18 19 21 22 23 24 24 25 26 25
3 4 9 11 7 10 12 9 10 12 19 19 11 8 13 17 14 28 25 23 18 12 11 5 4 4 5 8 11 14 14 15 15 17 18 19 20 21 21 23 25 26 28 29
5 10 7 10 7 11 8 3 2 8 15 18 11 12 26 20 19 27 23 19 15 11 4 3 5 8 12 13 13 13 14 15 15 16 17 18 18 19 20 21 23 24 25 27
9 13 14 9 20 19 17 12 8 9 15 13 13 6 5 13 6 2 1 4 5 4 5 10 10 10 13 14 14 15 14 14 14 15 15 16 16 17 18 20 21 21 22 22
13 14 5 4 3 8 9 8 8 9 12 11 7 11 15 5 9 9 7 5 4 7 10 11 11 12 13 15 16 16 16 16 16 17 17 17 17 17 17 17 18 19 21 21
5 1 3 7 9 9 8 7 8 8 7 6 10 7 5 3 5 4 4 4 9 11 10 11 11 13 15 16 16 17 17 17 17 18 18 18 18 17 17 18 18 19 20 20
Wind_Direction
246 243 245 258 264 266 267 268 270 268 266 268 261 263 264 259 261 257 251 253 242 241 241 244 254 265 262 259 268 283 301 306 302 306 310 282 230 217 215 214 237 222 205 213
245 247 258 261 261 264 260 262 263 268 267 263 270 273 266 261 266 258 254 251 239 240 237 229 245 255 258 255 250 277 294 307 301 307 311 272 231 218 212 217 224 232 166 188
254 251 235 249 267 266 262 259 263 266 273 262 272 275 273 263 265 244 241 243 249 241 230 226 240 243 241 232 246 264 288 309 301 310 315 266 231 210 207 211 209 213 230 226
260 250 244 258 272 303 276 273 271 264 267 266 273 283 280 275 267 246 239 239 244 229 222 227 233 242 233 221 225 252 278 301 302 312 319 256 225 224 221 222 230 229 229 215
238 263 238 235 267 314 293 287 267 249 262 279 260 278 294 291 281 245 236 241 233 230 225 233 235 230 233 216 226 243 273 289 302 310 317 278 215 221 220 223 232 232 242 228
255 257 258 258 269 283 307 295 247 250 262 262 252 232 283 281 279 248 238 248 244 212 215 228 233 234 234 212 220 236 260 276 290 302 315 307 244 222 226 245 247 233 225 225
290 279 269 262 267 268 271 261 261 236 212 248 9 218 235 236 276 249 239 236 227 215 226 238 242 236 223 215 226 233 256 259 259 276 308 319 280 246 241 248 263 249 226 219
298 325 8 16 261 265 259 217 224 261 230 287 200 228 236 210 249 250 256 239 227 219 237 236 226 230 229 209 223 224 241 239 220 214 215 278 316 273 261 248 268 266 225 213
257 270 253 323 286 258 232 224 234 300 280 304 228 231 234 259 252 255 259 239 227 236 234 237 220 226 224 203 209 213 224 223 210 204 193 183 140 137 243 253 272 247 215 193
241 272 287 270 232 237 241 259 197 218 259 222 234 243 9 316 257 255 259 251 248 233 236 230 229 213 194 198 206 212 213 216 218 209 196 191 178 160 155 224 228 224 212 211
227 242 241 271 225 241 236 262 230 212 235 309 304 112 46 20 313 277 259 247 247 230 223 251 227 199 183 194 197 202 198 199 210 218 212 200 200 194 174 174 186 179 197 215
197 236 253 250 261 272 274 277 273 257 225 209 230 293 75 56 38 338 248 236 223 218 208 227 183 180 183 193 194 192 191 198 202 210 221 219 215 214 211 203 204 212 213 211
119 256 313 345 83 135 229 269 264 282 274 245 191 244 172 90 72 70 72 97 214 212 212 201 185 184 191 193 196 196 201 208 221 223 232 236 233 232 230 228 231 231 235 242
264 172 160 189 310 319 307 299 303 310 258 267 237 246 235 192 71 73 74 89 104 195 216 198 193 195 198 199 201 207 213 220 226 211 213 226 239 238 242 245 241 241 247 252
235 250 275 287 306 309 316 320 299 289 299 292 263 288 270 274 254 289 23 70 70 124 149 181 195 198 203 204 210 214 223 220 235 230 233 236 241 250 251 257 260 261 263 260
213 229 256 297 314 297 307 312 294 281 273 270 282 295 291 256 247 252 255 254 128 87 97 111 127 128 155 186 195 222 236 219 238 236 247 251 257 256 258 260 263 267 271 268
236 215 281 283 317 319 311 224 334 320 289 276 277 304 297 243 260 271 279 217 218 185 119 109 110 111 112 106 103 134 221 266 263 257 260 268 273 275 270 268 270 271 272 272
237 250 258 280 326 273 273 301 306 299 312 275 264 286 277 237 223 224 230 231 223 209 202 165 146 130 120 138 155 270 268 275 278 280 276 273 272 271 268 267 267 269 270 269
250 251 256 247 229 282 293 289 318 319 311 303 258 254 257 251 265 203 215 204 194 155 137 139 90 78 83 100 82 267 273 276 274 272 273 275 275 278 280 278 276 274 272 271
238 233 232 208 220 242 224 214 327 329 305 289 298 256 266 245 243 233 208 202 178 149 120 104 109 102 19 22 256 257 263 262 262 266 269 272 276 280 282 281 280 279 279 278
153 213 228 238 242 262 263 258 281 290 280 312 307 280 242 237 237 203 166 168 151 132 126 124 132 137 321 287 290 288 283 278 275 273 272 271 271 272 275 278 282 285 286 285
209 210 219 224 231 258 272 294 261 273 297 314 320 259 230 208 201 186 187 182 177 175 155 154 234 274 295 297 292 294 289 282 277 275 275 275 275 276 277 279 281 283 284 287
244 229 239 226 233 254 258 306 335 327 282 293 309 233 208 225 215 204 183 186 163 137 133 219 261 283 287 286 283 282 283 285 288 290 289 288 288 289 290 290 292 293 293 293
271 259 263 235 232 245 266 282 299 297 295 289 294 325 194 137 127 113 276 92 103 183 243 258 265 277 283 283 284 283 284 284 286 287 289 291 293 292 291 290 292 293 293 294
275 276 240 304 266 246 234 258 265 264 278 248 234 199 212 187 201 181 205 222 233 249 258 268 276 282 284 286 287 288 290 290 292 293 295 297 297 298 297 297 297 297 299 302
245 359 219 194 201 222 230 203 244 238 244 279 262 236 210 178 235 228 231 261 276 268 271 283 291 290 288 287 287 288 289 292 294 296 298 300 303 304 305 306 307 309 311 313